Location: Gniazdowice
(50.2124°N, 20.2673°E)
Time: 00:50:00
(UTC+00:00)

Okean 2 - Pass Details

Date: 23 May 2024
Orbit: 540 x 553 km, 82.5° (Epoch: 18 June)

Event Time Altitude Azimuth Distance (km) Brightness Sun altitude
Exits shadow 00:50:53 19° 237° (WSW) 1,334 4.7 -13.1°
Maximum altitude 00:53:03 31° 288° (WNW) 958 4.4 -12.9°
Drops below altitude 10° 00:56:39 10° 352° (N) 1,817 6.7 -12.6°
Sets 00:59:00 0° 3° (N) 2,715 8.0 -12.4°
